Regional Weather Roundup
Issued by NWS

Home | Current Version | Previous Version | Graphics & Text | Print | Product List | Glossary Off
Versions: 1 2 3 4 5 6 7 8 9 10 11 12 13 14 15 16 17 18 19 20 21 22 23 24 25 26 27 28 29 30 31 32 33 34 35 36 37 38 39 40 41 42 43 44 45 46 47 48 49 50

000
ASUS43 KTOP 271559
RWRKS

WEATHER ROUNDUP FOR KANSAS
NATIONAL WEATHER SERVICE GOODLAND KS
1000 AM CST FRI FEB 27 2015

NOTE:  "FAIR" INDICATES FEW OR NO CLOUDS BELOW 12,000 FEET WITH NO
SIGNIFICANT WEATHER AND/OR OBSTRUCTIONS TO VISIBILITY.

KSZ001>006-013>018-027>032-041>047-271700-
NORTHWEST KANSAS

CITY           SKY/WX    TMP DP  RH WIND       PRES   REMARKS
GOODLAND       LGT SNOW  12   8  84 S20       30.28S FOG     WCI  -6
HAYS           CLOUDY    12  -6  44 SE10      30.51S WCI  -1
HILL CITY      CLOUDY    13   0  56 S7        30.48F
RUSSELL        CLOUDY    12   1  61 E5        30.52F
$$

KSZ061>065-074>080-084>089-271700-
SOUTHWEST KANSAS

CITY           SKY/WX    TMP DP  RH WIND       PRES   REMARKS
DODGE CITY     LGT SNOW  13   6  74 SE13      30.43F WCI  -2
ELKHART          N/A     11   3  70 SE16        N/A  WCI  -6
GARDEN CITY    LGT SNOW  12   7  80 S14       30.37F WCI  -3
GREAT BEND     MOSUNNY   12  -2  52 SE10      30.53F WCI  -1
LIBERAL        CLOUDY    12   5  73 SE13      30.38F WCI  -3
$$

KSZ066>073-081>083-090>101-271700-
SOUTHEAST KANSAS

CITY           SKY/WX    TMP DP  RH WIND       PRES   REMARKS
CHANUTE        CLOUDY    13   0  56 NE8       30.64R
COFFEYVILLE    CLOUDY    14   2  58 NE12      30.64R WCI   0
HUTCHINSON     LGT SNOW  12   2  64 E6        30.58S
MEDICINE LODGE   N/A     13   8  81 E9        30.56S
NEWTON         CLOUDY    10  -4  52 E5        30.58S
PARSONS        PTSUNNY   15  -1  49 NE7       30.64R
WICHITA INTL   CLOUDY    13  -1  54 E8        30.59S
WICHITA JABRA  CLOUDY    12   0  58 E5        30.59S
WINFIELD       CLOUDY    14  -1  51 E8        30.61F
$$

KSZ007>012-019>026-033>040-048>060-102>105-271700-
NORTHEAST KANSAS

CITY           SKY/WX    TMP DP  RH WIND       PRES   REMARKS
CONCORDIA      PTSUNNY   10   3  73 S3        30.58S
EMPORIA        CLOUDY    10   1  67 NE8       30.61S
LAWRENCE       MOSUNNY   10   0  63 NE6       30.66F
MANHATTAN      CLOUDY    11   3  70 VRB3      30.64R
OLATHE IND     FLURRIES  10  -1  61 NE6       30.63F
OLATHE EXE     SUNNY     11  -2  56 E9        30.62F
SALINA         PTSUNNY   13   1  59 E5        30.61S
TOPEKA BILLARD MOSUNNY   11   1  64 E3        30.66F
TOPEKA FORBES  PTSUNNY   11   0  61 NE5       30.63F
$$



USA.gov is the U.S. government's official web portal to all federal, state and local government web resources and services.